Regional Weather Roundup
Issued by NWS Sterling, VA

Home | Current Version | Previous Version | Graphics & Text | Print | Product List | Glossary On
Versions: 1 2 3 4 5 6 7 8 9 10 11 12 13 14 15 16 17 18 19 20 21 22 23 24 25 26 27 28 29 30 31 32 33 34 35 36 37 38 39 40 41 42 43 44 45 46 47 48 49 50
000
ASUS41 KLWX 261710
RWRLWX

REGIONAL WEATHER ROUNDUP
NATIONAL WEATHER SERVICE BALTIMORE MD/WASHINGTON DC
1200 PM EST MON JAN 26 2015

Note: "FAIR" indicates few or no clouds below 12,000 feet
with no significant weather and/or obstructions to visibility.
 TC=TEMPERATURE CELSIUS

 * =Non NWS site. Station does not report precipitation (e.g. rain,
    snow, etc.), thunder, or fog.

DCZ001-MDZ009-015-VAZ040>042-051-053>054-261800-
WASHINGTON METRO

CITY           SKY/WX    TMP DP  RH WIND       PRES   REMARKS
WASHINGTON NAT LGT SNOW  36  28  75 NE14      29.78F WCI  27
DULLES         LGT SNOW  33  30  88 NE5       29.77F FOG
ANDREWS AFB    LGT RAIN  32  32 100 NE15      29.75F WCI  22
FT BELVOIR     LGT RAIN  35  32  92 VRB3      29.77F FOG
QUANTICO       LGT RAIN  36  33  89 NE13      29.77F WCI  27
COLLEGE PARK*  CLOUDY    32  32 100 NE5       29.78F
LEESBURG*      MIX PCPN  32  32 100 NE8       29.79F WCI  25
MANASSAS*      LGT RAIN  36  36 100 NE7       29.77F FOG
GAITHERSBURG*  CLOUDY    30  27  86 NE8       29.81F WCI  23

$$

MDZ006>007-011-014-261800-
BALTIMORE METRO

CITY           SKY/WX    TMP DP  RH WIND       PRES   REMARKS
BWI AIRPORT    LGT SNOW  30  28  92 NE10      29.78F FOG     WCI  21
MD SCIENCE CTR   N/A     30  27  88 MISG      29.80F
MARTIN STATE   LGT SNOW  32  30  93 N10       29.81F WCI  24
ANNAPOLIS      CLOUDY    32  29  88 N9        29.78F WCI  24
FORT MEADE*    CLOUDY    32  28  86 NE6       29.81F

$$

MDZ012-015-019>023-261800-
MARYLAND EASTERN SHORE

CITY           SKY/WX    TMP DP  RH WIND       PRES   REMARKS
OCEAN CITY     CLOUDY    46  42  86 N9        29.68S
SALISBURY      CLOUDY    46  40  79 NE14      29.70F
BAY BRIDGE AP*   N/A     32  32 100 NE7       29.78F
CAMBRIDGE*     CLOUDY    39  34  81 NE10G16   29.72F
EASTON*        CLOUDY    37  37 100 NE12G29   29.78F

$$

MDZ017>025-261800-
SOUTHERN MARYLAND

CITY           SKY/WX    TMP DP  RH WIND       PRES   REMARKS
PATUXENT RIVER CLOUDY    38  34  85 N14       29.71F
ST INIGOES     CLOUDY    41  34  76 NE12G18   29.69F
LEONARDTOWN*   CLOUDY    36  34  93 NE5       29.73F

$$

MDZ003>005-261800-
NORTH CENTRAL MARYLAND

CITY           SKY/WX    TMP DP  RH WIND       PRES   REMARKS
FREDERICK*     LGT SNOW  30  27  86 E8        29.83F WCI  23
HAGERSTOWN APT CLOUDY    29  23  78 N8        29.78F WCI  21
WESTMINSTER*   LGT SNOW  28  27  93 E9        29.77F WCI  20

$$

MDZ501>502-261800-
WESTERN MARYLAND

CITY           SKY/WX    TMP DP  RH WIND       PRES   REMARKS
OAKLAND*       CLOUDY    27 N/A N/A SE9       29.60F FOG     WCI  17
CUMBERLAND*    CLOUDY    32  28  86 CALM      29.81F

$$

VAZ025>031-261800-
SHENANDOAH VALLEY

CITY           SKY/WX    TMP DP  RH WIND       PRES   REMARKS
WINCHESTER*    LGT SNOW  34  30  86 NE3       29.76F
FRONT ROYAL*   CLOUDY    32  32 100 NE5       29.74F
LURAY*         CLOUDY    37  37 100 N10       29.71F
NEW MARKET*    CLOUDY    33  32  96 N8        29.72F WCI  26
STAUNTON*      LGT SNOW  34  32  93 CALM      29.71F
WAYNESBORO*    CLOUDY    32  32  99 CALM      29.68F

$$

WVZ021-048>050-054>055-261800-
EASTERN WEST VIRGINIA PANHANDLE

CITY           SKY/WX    TMP DP  RH WIND       PRES   REMARKS
MARTINSBURG    LGT SNOW  29  24  82 N7        29.78F
PETERSBURG*    LGT SNOW  32  32  99 CALM      29.75S

$$

VAZ036>039-050-261800-
CENTRAL FOOTHILLS

CITY           SKY/WX    TMP DP  RH WIND       PRES   REMARKS
CHARLOTTESVILL LGT RAIN  36  34  92 N9        29.71F WCI  29
CULPEPER*      RAIN      37  36  93 N6        29.75F
ORANGE*        LGT RAIN  37  37 100 N7        29.73F
GORDONSVILLE*  CLOUDY    38  37  95 NE7       29.70F
WARRENTON*     LGT RAIN  37  37 100 NE7       29.74F

$$

VAZ055>057-261800-
NORTH AND CENTRAL PIEDMONT

CITY           SKY/WX    TMP DP  RH WIND       PRES   REMARKS
FREDERICKSBRG* CLOUDY    38  38 100 N9        29.73F
STAFFORD*      DRIZZLE   36  32  84 N6        29.78F

$$

NCZ024-NYZ072-PAZ021-071-VAZ022-071-261800-
OTHER REGIONAL OBSERVATIONS

CITY           SKY/WX    TMP DP  RH WIND       PRES   REMARKS
NEW YORK CITY  CLOUDY    23  14  68 NE17G30   29.96F WCI   9
PHILADELPHIA   LGT SNOW  30  25  81 NE16G25   29.83F WCI  19
PITTSBURGH     SNOW      26  23  88 N10       29.71S VSB 1/2 WCI  16
ROANOKE        CLOUDY    42  35  76 NE7       29.68F
RICHMOND       PTSUNNY   49  41  74 NE8       29.67F
RALEIGH        PTSUNNY   48  42  80 CALM      29.64F

$$

ANZ530>537-261800-
MARINE OBSERVATIONS

STATION/POSITION TIME  TEMP    WIND        PRES
                       AIR SEA DIR/SP/G
                 (UTC) (F)     (DEG/KT/KT) (MB)
THOMAS PT LIGHT  1700   33 37   30/ 16/ 19 1009.0F
BALT KEY BRIDGE  1700   30      30/ 10/ 12 1009.0F
COVE POINT       1700   36      20/  9/ 12 1006.9F
LEWISETTA        1700   40 39   40/  8/ 13 1005.3F
SOLOMONS ISLAND  1700      39                N/A
PINEY POINT      1700           50/ 11/ 15   N/A

$$




USA.gov is the U.S. government's official web portal to all federal, state and local government web resources and services.